Location: Bauru
(22.3170°S, 49.0670°W)
Time: 02:27:44
(UTC-03:00)

ISS - Visible Passes

Search period start: 21 October 2018 00:00
Search period end: 31 October 2018 00:00
Orbit: 403 x 408 km, 51.6° (Epoch: 21 October)

Date Brightness Start Highest point End Pass type
(mag) Time Alt. Az. Time Alt. Az. Time Alt. Az.
21 Oct -4.0 04:26:30 27° SW 04:28:08 75° NW 04:31:24 10° NE visible
21 Oct -1.1 19:21:44 10° W 19:24:23 22° SW 19:27:02 10° S visible
22 Oct -0.7 03:39:10 11° ENE 03:39:10 11° ENE 03:39:18 10° ENE visible
